[[{"header":{"parameterUnit":"m.s-1","parameterCategory":1,"la1":30.2991,"la2":30.254,"lo1":-89.0895,"lo2":-89.0444,"dy":0.0017,"dx":0.0017,"nx":28,"ny":28,"refTime":"2025-03-15T09:00:00:Z","depth":0,"parameterNumber":2,"parameterNumberName":"U-component_of_WINDS"},"data":[0,0,0,0,0,0,0,0,0,0,0,0,0,0,0,0,0,0,0,0,0,0,0,0,0,0,0,0,0,0,0,0,0,0,0,0,0,0,0,0,0,0,0,0,0,0,0,0,0,0,0,0,0,0,0,0,0,0,4.8039,4.8042,0,4.8261,4.8264,4.8266,4.8242,4.8238,4.8234,4.8231,4.8463,4.8473,4.8482,0,0,0,0,0,0,0,0,0,0,0,0,0,4.7599,4.7607,4.8039,4.8042,4.8045,4.8261,4.8264,4.8267,4.8242,4.8238,4.8234,4.823,4.846,4.8471,4.8483,0,0,0,0,0,0,0,0,0,0,0,0,0,4.7803,4.761,4.8039,4.8058,4.8062,4.826,4.8264,4.8268,4.8243,4.8238,4.8232,4.8228,4.8456,4.847,4.8484,4.8678,0,0,4.8528,4.8534,0,0,0,0,0,0,0,0,4.7791,4.7819,4.8053,4.8057,4.8062,4.8218,4.8194,4.8405,4.8244,4.8175,4.8231,4.8225,4.8386,4.8406,4.8459,4.8689,4.8699,4.8529,4.8538,4.8544,4.8548,0,0,0,0,0,0,0,4.7777,4.7809,4.8127,4.8056,4.8062,4.8058,4.8081,4.8234,4.8308,4.818,4.8179,4.8205,4.8388,4.8446,4.8465,4.8702,4.8529,4.8541,4.855,4.8556,4.9103,4.9108,0,0,0,0,0,0,4.7757,4.7797,4.812,4.8134,4.7911,4.807,4.8096,4.8174,4.8306,4.8321,4.821,4.8203,4.8424,4.8448,4.8473,4.8709,4.8544,4.8557,4.8565,4.9097,4.9104,4.9111,0,0,0,0,0,0,4.7748,4.7786,4.8111,4.7965,4.8006,4.8083,4.8171,4.8181,4.8238,4.8328,4.8342,4.8255,4.8421,4.8453,4.8627,4.8716,4.8563,4.8576,4.909,4.9099,4.9107,4.9182,0,0,0,0,0,0,4.7735,4.7783,4.7856,4.7967,4.8014,4.8261,4.8176,4.8189,4.8262,4.8256,4.8374,4.8389,4.8419,4.8606,4.8641,4.8733,4.8587,4.9082,4.9094,4.9104,4.9172,4.9192,4.921,0,0,0,0,0,4.772,4.787,4.786,4.7899,4.8107,4.8266,4.8293,4.8324,4.827,4.8345,4.8402,4.8385,4.8701,4.8624,4.8663,4.8761,4.9077,4.909,4.9104,4.9163,4.9188,4.9209,0,0,0,0,0,0,4.777,4.7885,4.7875,4.8065,4.8156,4.8261,4.8357,4.8349,4.8458,4.8448,4.8483,4.851,4.8686,4.8741,4.8653,4.8956,4.8882,4.8904,4.8913,4.8938,4.8957,4.894,4.8599,0,0,0,0,0,4.7802,4.792,4.8014,4.8173,4.8219,4.828,4.835,4.8366,4.8462,4.85,4.8571,4.8666,4.8786,4.8865,4.8981,4.9179,4.9205,4.9266,4.9285,4.93,4.9319,4.9428,4.9457,4.9155,4.9155,4.9155,0,0,4.7872,4.7949,4.8022,4.8185,4.8257,4.8379,4.8313,4.8445,4.8536,4.8521,4.8689,4.8744,4.8853,4.904,4.9126,4.9091,4.9408,4.9317,4.9329,4.934,4.9445,4.9474,4.9499,4.9164,4.9162,4.9161,0,0,4.8061,4.8131,4.827,4.8343,4.8452,4.8492,4.8526,4.8633,4.8668,4.8837,4.8828,4.8938,4.9145,4.9223,4.9289,4.9507,4.9495,4.9544,4.9644,4.975,4.9774,4.9795,4.9873,4.9901,4.9562,4.9563,4.9563,0,4.8134,4.8316,4.8344,4.8477,4.855,4.854,4.8682,4.8752,4.8894,4.8945,4.8904,4.9163,4.9235,4.9441,4.9493,4.9548,4.9588,4.9531,4.9768,4.9789,4.981,4.9885,4.9914,4.9568,4.9567,4.9567,4.9566,0,4.8401,4.8528,4.8628,4.8763,4.8847,4.8984,4.9034,4.9116,4.9124,4.9169,4.9342,4.9428,4.9561,4.961,4.9621,4.9818,4.9793,4.9759,4.9686,4.9843,4.9914,4.9943,4.9575,4.9574,4.9572,4.9571,0,0,4.8628,4.8776,4.8813,4.8874,4.8993,4.9093,4.923,4.9358,4.9428,4.9527,4.9643,4.9818,4.9788,4.9863,4.9882,4.9975,5.0143,4.9931,4.9934,4.9967,5.0365,5.039,5.0422,5.0135,5.0141,5.0145,5.0356,0,4.8829,4.907,4.9099,4.9314,4.9432,4.9424,4.9544,4.9631,4.9676,4.9783,4.9834,4.9957,4.9908,4.9953,5.0045,5.0103,5.0223,5.0088,5.0245,5.025,5.0218,5.0459,5.0486,5.0681,5.0384,5.0389,5.0392,0,4.9096,4.92,4.9426,4.9529,4.958,4.9687,4.9807,4.9909,5.0008,5.0034,5.0118,5.0125,5.0268,5.0188,5.0386,5.0293,5.0359,5.0398,5.0406,5.0422,5.0331,5.0483,5.0744,5.0773,5.0436,5.0433,5.043,0,4.9239,4.9436,4.9597,4.965,4.9774,4.9849,4.9905,4.9998,5.0073,5.0179,5.0228,5.0349,5.0416,5.051,5.055,5.0488,5.0746,5.0669,5.0773,5.0772,5.0829,5.0825,5.1104,5.0871,5.087,5.087,5.0869,0,4.9461,4.96,4.9663,4.9762,4.9918,4.995,5.0104,5.0156,5.0239,5.0349,5.035,5.0454,5.05,5.0611,5.0643,5.0802,5.0833,5.0859,5.0866,5.0859,5.0856,5.0903,5.0891,5.0877,5.0876,5.0874,5.0873,0,4.9648,4.9695,4.987,4.9973,5.0002,5.0112,5.02,5.0297,5.034,5.048,5.0514,5.0584,5.0714,5.0763,5.0923,5.0944,5.1129,5.1125,5.1095,5.1097,5.1198,5.1188,5.1518,5.1564,5.13,5.1302,5.1304,0,4.9786,4.9893,5.0006,5.0079,5.0136,5.0254,5.0331,5.0367,5.0447,5.0567,5.0649,5.0779,5.0884,5.1094,5.1159,5.1282,5.1281,5.1388,5.1299,5.1289,5.1283,5.1276,5.1287,5.1405,5.1407,5.141,5.1411,0,5.0027,5.0045,5.0154,5.0272,5.0363,5.0458,5.055,5.0611,5.0661,5.0751,5.0883,5.0965,5.1127,5.1257,5.1382,5.144,5.1435,5.1439,5.1469,5.1463,5.1442,5.1455,5.114,5.1431,5.1429,5.1428,5.1427,5.1426,5.0194,5.0288,5.0382,5.0504,5.0577,5.0663,5.0759,5.0814,5.0924,5.1058,5.1073,5.1216,5.1312,5.148,5.1544,5.1657,5.1628,5.1672,5.1684,5.1694,5.1701,5.1423,5.168,5.1679,5.1679,5.1679,5.1678,0,5.0435,5.0495,5.0607,5.0735,5.0831,5.0816,5.0917,5.0999,5.1124,5.1213,5.1317,5.1469,5.1594,5.1669,5.1795,5.1871,5.1872,5.1903,5.1898,5.1912,5.172,5.1681,5.19,5.19,5.19,5.19,5.19,5.19,5.0572,5.073,5.0759,5.0954,5.1013,5.1152,5.1211,5.1291,5.1362,5.1532,5.1636,5.1683,5.1767,5.1899,5.2013,5.2032,5.2078,5.2112,5.2129,5.1948,5.1925,5.1903,5.1867,5.2122,5.2122,5.2311,5.2313,5.2314]},{"header":{"parameterUnit":"m.s-1","parameterCategory":1,"la1":30.2991,"la2":30.254,"lo1":-89.0895,"lo2":-89.0444,"dy":0.0017,"dx":0.0017,"nx":28,"ny":28,"refTime":"2025-03-15T09:00:00:Z","depth":0,"parameterNumber":3,"parameterNumberName":"V-component_of_WINDS"},"data":[0,0,0,0,0,0,0,0,0,0,0,0,0,0,0,0,0,0,0,0,0,0,0,0,0,0,0,0,0,0,0,0,0,0,0,0,0,0,0,0,0,0,0,0,0,0,0,0,0,0,0,0,0,0,0,0,0,0,0.4448,0.4448,0,0.4496,0.4496,0.4497,0.449,0.4489,0.4488,0.4487,0.4543,0.4545,0.4548,0,0,0,0,0,0,0,0,0,0,0,0,0,0.4356,0.4358,0.4448,0.4448,0.4449,0.4496,0.4496,0.4497,0.449,0.4489,0.4488,0.4487,0.4543,0.4545,0.4548,0,0,0,0,0,0,0,0,0,0,0,0,0,0.44,0.4359,0.4448,0.4451,0.4451,0.4496,0.4496,0.4497,0.449,0.4489,0.4487,0.4486,0.4542,0.4545,0.4548,0.4595,0,0,0.4559,0.456,0,0,0,0,0,0,0,0,0.4397,0.4403,0.445,0.445,0.4451,0.4485,0.4485,0.453,0.449,0.4476,0.4487,0.4486,0.4525,0.453,0.4542,0.4597,0.46,0.4559,0.4561,0.4563,0.4564,0,0,0,0,0,0,0,0.4394,0.4401,0.4467,0.445,0.4451,0.4452,0.4457,0.4493,0.4507,0.4477,0.4476,0.4482,0.4526,0.4539,0.4543,0.4601,0.4559,0.4562,0.4564,0.4565,0.4699,0.47,0,0,0,0,0,0,0.4389,0.4398,0.4465,0.4468,0.442,0.4455,0.446,0.4476,0.4507,0.451,0.4483,0.4481,0.4534,0.4539,0.4545,0.4603,0.4563,0.4566,0.4568,0.4698,0.4699,0.4701,0,0,0,0,0,0,0.4387,0.4395,0.4463,0.4433,0.4442,0.4458,0.4475,0.4477,0.449,0.4511,0.4514,0.4493,0.4533,0.4541,0.4583,0.4605,0.4567,0.457,0.4696,0.4698,0.47,0.4719,0,0,0,0,0,0,0.4385,0.4395,0.4411,0.4434,0.4444,0.4498,0.4477,0.4479,0.4496,0.4494,0.4522,0.4525,0.4532,0.4577,0.4586,0.4609,0.4573,0.4694,0.4697,0.4699,0.4716,0.4721,0.4726,0,0,0,0,0,0.4382,0.4415,0.4411,0.442,0.4463,0.4499,0.4505,0.451,0.4497,0.4515,0.4528,0.4524,0.4601,0.4582,0.4591,0.4616,0.4692,0.4696,0.4699,0.4714,0.472,0.4725,0,0,0,0,0,0,0.4396,0.4418,0.4414,0.4456,0.4475,0.4497,0.4519,0.4517,0.4542,0.454,0.4548,0.4554,0.4597,0.4611,0.4589,0.4664,0.4645,0.4651,0.4653,0.4659,0.4664,0.4661,0.4576,0,0,0,0,0,0.4404,0.4428,0.4447,0.4482,0.4492,0.4504,0.4519,0.4522,0.4544,0.4553,0.4569,0.4592,0.4622,0.4641,0.4669,0.4718,0.4725,0.474,0.4744,0.4748,0.4753,0.4782,0.479,0.4712,0.4712,0.4712,0,0,0.4421,0.4436,0.4451,0.4485,0.4501,0.4528,0.4511,0.4541,0.4562,0.4558,0.4598,0.4611,0.4638,0.4684,0.4705,0.4697,0.4776,0.4752,0.4755,0.4758,0.4786,0.4794,0.48,0.4714,0.4714,0.4713,0,0,0.4466,0.4478,0.4509,0.4525,0.4548,0.4556,0.4564,0.4587,0.4595,0.4635,0.4633,0.466,0.471,0.4729,0.4746,0.4799,0.4798,0.4809,0.4834,0.4862,0.4868,0.4874,0.4895,0.4902,0.4813,0.4813,0.4813,0,0.4484,0.4524,0.4526,0.4557,0.4573,0.4568,0.4601,0.4617,0.4649,0.4662,0.4651,0.4715,0.4732,0.4784,0.4797,0.481,0.4821,0.4806,0.4867,0.4872,0.4877,0.4898,0.4906,0.4815,0.4814,0.4814,0.4814,0,0.4546,0.4574,0.4597,0.4626,0.4645,0.4676,0.4686,0.4706,0.4707,0.4717,0.476,0.4781,0.4814,0.4826,0.4828,0.4878,0.4873,0.4864,0.4846,0.4886,0.4906,0.4913,0.4816,0.4816,0.4816,0.4815,0,0,0.4602,0.4632,0.4641,0.4655,0.468,0.4703,0.4736,0.4766,0.4783,0.4806,0.4836,0.4878,0.4871,0.489,0.4894,0.4919,0.4963,0.4908,0.4909,0.4919,0.5023,0.503,0.5038,0.4961,0.4963,0.4964,0.5021,0,0.4651,0.4706,0.471,0.4761,0.4788,0.4784,0.4813,0.4833,0.4844,0.4871,0.4884,0.4914,0.4901,0.4913,0.4937,0.4952,0.4984,0.4948,0.4992,0.4993,0.4986,0.5048,0.5056,0.5108,0.5028,0.503,0.5031,0,0.4715,0.4737,0.479,0.4813,0.4825,0.4851,0.488,0.4904,0.4928,0.4935,0.4956,0.4958,0.4994,0.4974,0.5026,0.5002,0.502,0.503,0.5033,0.5038,0.5015,0.5057,0.5125,0.5134,0.5042,0.5041,0.504,0,0.4752,0.4796,0.4834,0.4846,0.4873,0.4892,0.4905,0.4927,0.4946,0.4972,0.4985,0.5016,0.5033,0.5059,0.507,0.5053,0.5123,0.5102,0.5131,0.5131,0.5147,0.5146,0.522,0.5156,0.5156,0.5156,0.5156,0,0.4807,0.484,0.4851,0.4875,0.4913,0.4918,0.4957,0.4969,0.4989,0.5017,0.5017,0.5043,0.5055,0.5085,0.5094,0.5138,0.5145,0.5154,0.5156,0.5154,0.5154,0.5168,0.5165,0.5158,0.5157,0.5157,0.5157,0,0.4855,0.4864,0.4905,0.4927,0.4934,0.4961,0.4982,0.5006,0.5016,0.5052,0.5061,0.5078,0.5113,0.5126,0.5169,0.5176,0.5226,0.5225,0.5217,0.5218,0.5247,0.5245,0.5334,0.5347,0.5273,0.5273,0.5274,0,0.489,0.4915,0.494,0.4958,0.4971,0.4999,0.5018,0.5025,0.5045,0.5075,0.5097,0.5131,0.5158,0.5215,0.5233,0.5267,0.5268,0.5297,0.5273,0.5271,0.527,0.5269,0.5273,0.5302,0.5302,0.5303,0.5303,0,0.4952,0.4955,0.498,0.5008,0.503,0.5053,0.5075,0.509,0.5102,0.5125,0.5159,0.5181,0.5224,0.5259,0.5294,0.531,0.531,0.531,0.5319,0.5319,0.5314,0.5319,0.5231,0.5309,0.5308,0.5308,0.5308,0.5307,0.4996,0.5019,0.504,0.5069,0.5086,0.5107,0.5131,0.5145,0.5173,0.5207,0.5211,0.5249,0.5275,0.5321,0.5339,0.5371,0.5363,0.5375,0.5379,0.5382,0.5385,0.5308,0.5377,0.5377,0.5377,0.5376,0.5376,0,0.5059,0.5072,0.5099,0.5129,0.5153,0.5148,0.5173,0.5194,0.5227,0.525,0.5277,0.5318,0.5352,0.5373,0.5409,0.543,0.5431,0.544,0.5439,0.5443,0.5389,0.5378,0.5438,0.5438,0.5438,0.5438,0.5438,0.5438,0.5095,0.5134,0.514,0.5188,0.5202,0.5237,0.5252,0.5273,0.5292,0.5337,0.5364,0.5377,0.54,0.5438,0.547,0.5476,0.549,0.5499,0.5504,0.5453,0.5447,0.5441,0.5431,0.5501,0.5501,0.5556,0.5557,0.5557]}]]